Terminal Aerodrome Forecast
Issued by NWS

Home | Current Version | Previous Version | Graphics & Text | Print | Product List | Glossary On
Versions: 1 2 3 4 5 6 7 8 9 10 11 12 13 14
000
FTUS43 KTOP 161100
TAFFOE
TAF
KFOE 161123Z 1612/1712 17017G25KT P6SM SCT200
     FM161400 19031G40KT P6SM BKN180
     FM162200 21017G24KT P6SM SCT080
     FM170100 28008KT P6SM BKN080=

USA.gov is the U.S. government's official web portal to all federal, state and local government web resources and services.